ARIANE 2 DEB, 33556

Orbit data source: Space-Track

ARIANE 2 DEB, 33556 is space debris in HEO originally from a launch on Fri, 27 Jan 1989 UTC launched from the French Guiana (FRGUI). Debris objects in space refer to the collection of defunct objects orbiting the Earth. Examples of debris include non-operational satellites, rocket bodies, and fragments generated from explosions, collisions, or faulty payload assembly.

Loading next visibility...
Identifier
33556, 1989-006AY
Orbit
HEO
Country
Flag of FRFR
Related business
Manufacturer
EADS/LV
Mission
Spacecraft
Bus & Motor
Unknown
Mass
Unknown
Launch date (UTC)
1989-01-27 (37 years ago)
Launch vehicle
Unknown
Launch site
French Guiana (FRGUI)
Object type
Payload
Rocket body
Debris
Shape & HBR
Unknown shape, 0.2 m
Radar Cross Section
Medium (>0.1 m² and <1 m²)

Expand to show TLE details & history
Last TLE update: 5 days ago

TLE from 5 days ago
0 ARIANE 2 DEB
1 33556U 89006AY  25345.12935774  .00000465  00000-0  80870-2 0  9992
2 33556   9.1563 209.2351 7094784 148.9321 285.8394  2.31593496 98050
Epoch: 2025-12-11T03:06Z
TLE epoch observation values (Epoch: 2025-12-11T03:06:16.508Z)
Latitude
-0.00003°
Longitude
82.72426°
Altitude
24,130.605 km
Speed
3.1 km/s
True Right ascension
13h 57m 31s
True Declination
0° 00' 00"
Sunlit
Object was in daylight at epoch
Visualization orbit readout
Latitude
Unknown
Longitude
Unknown
Altitude
Unknown
Speed
Unknown
Apparent Right ascension
Unknown
Apparent Declination
Unknown
Sunlit
N/A
Visualization observer readout
Local Sidereal Time
03:10:44
Azimuth
Unknown
Elevation
Unknown
Doppler factor
Unknown
Orbital elements
Apogee altitude
34,882.738 km
Perigee altitude
634.046 km
Semi-major axis
24,136.529 km
Eccentricity
0.70948
Inclination
9.1563°
RAAN
209.2351°
Arg. of periapsis
148.9321°
True anomaly
211.1444°
Mean anomaly
285.8394°
Eccentric anomaly
248.11799°
Mean motion
0.5788 °/min
Orbital period
621.97 mins
BSTAR
0.008087
Loading maneuver chart data...
Computing Atmospheric mass density...
Loading historical data...
Loading historical data...
Loading historical data...
Loading historical data...
Loading historical data...
Loading historical data...
Loading historical data...

Documentation

Showing up to 5 results
|